Location: Willow Springs
(37.9952°N, 120.2591°W)
Time: 00:38:21
(UTC+00:00)

COSMOS 2428 - Pass Details

Date: 03 August 2024
Orbit: 842 x 857 km, 70.9° (Epoch: 10 September)

Event Time Altitude Azimuth Distance (km) Brightness Sun altitude
Exits shadow 12:05:31 15° 238° (WSW) 2,117 4.1 -11.4°
Maximum altitude 12:09:41 37° 299° (WNW) 1,287 3.4 -10.7°
Drops below altitude 10° 12:14:56 10° 7° (N) 2,479 5.7 -9.9°
Sets 12:17:36 0° 15° (NNE) 3,421 6.6 -9.4°
